History

Records

Pos Player Map Author Time Server Date ▲
#6 jaaag LBC - hasty development index flannelbutter 6.01 - 2025-02-14 22:15
#10 RooK LBC - hasty development index flannelbutter 6.20 - 2025-02-14 22:15
#36 speed450 LBC - hasty development index flannelbutter 6.62 - 2025-02-14 22:15
#5 Killer LBC - hasty development index flannelbutter 5.84 - 2025-02-14 22:16
#56 ƒun ॥ Bak || old LBC - hasty development index flannelbutter 7.20 - 2025-02-14 22:17
#104 Killer Lucky jump no. 49 hermen8 11.43 - 2025-02-14 22:23
#114 ĐVαทєssα /retired Lucky jump no. 49 hermen8 11.46 - 2025-02-14 22:25
#16 ңя ױ B d a a a v Lucky jump no. 49 hermen8 11.23 - 2025-02-14 22:25
#35 roulemp III Short Stunt 230 fritzlimo 20.18 - 2025-02-14 22:27
#20 шгн*Ұυκі III Short Stunt 230 fritzlimo 19.02 - 2025-02-14 22:28
#39 ңя ױ B d a a a v III Short Stunt 230 fritzlimo 20.59 - 2025-02-14 22:29
#17 jaaag III Short Stunt 230 fritzlimo 18.82 - 2025-02-14 22:29
#26 ңя ױ ko I Λc III Short Stunt 230 fritzlimo 19.52 - 2025-02-14 22:29
#52 им|murat$4C III Short Stunt 230 fritzlimo 22.74 - 2025-02-14 22:30
#22 speed450 III Short Stunt 230 fritzlimo 19.16 - 2025-02-14 22:31
#25 Killer III Short Stunt 230 fritzlimo 19.32 - 2025-02-14 22:32
#47 ĐVαทєssα /retired III Short Stunt 230 fritzlimo 21.42 - 2025-02-14 22:33
#49 ƒun ॥ Bak || old III Short Stunt 230 fritzlimo 22.16 - 2025-02-14 22:33
#201 им|murat$4C Luckländer V buggeh 12.27 - 2025-02-14 22:35
#211 speed450 Luckländer V buggeh 15.88 - 2025-02-14 22:36
#186 ĐVαทєssα /retired Luckländer V buggeh 11.45 - 2025-02-14 22:41
#3 ңя ױ B d a a a v track 275 Lucky Jump pujde 9.13 - 2025-02-14 22:44
#102 speed450 track 275 Lucky Jump pujde 9.39 - 2025-02-14 22:45
#100 ƒun ॥ Bak || old track 275 Lucky Jump pujde 9.38 - 2025-02-14 22:47
#58 ңя ױ*Enemy ฟřћ* track 275 Lucky Jump pujde 9.23 - 2025-02-14 22:49
#174 ңя ױ B d a a a v lucky jumpo #3 jkamil52 11.71 - 2025-02-14 22:51
#179 ĐVαทєssα /retired lucky jumpo #3 jkamil52 11.78 - 2025-02-14 22:52
#1 ңя ױ B d a a a v HR jump lol 107 pedrokazz 12.21 - 2025-02-14 22:58
#47 ңя ױ*Enemy ฟřћ* Corny LJ #58 mrcornhead 15.31 - 2025-02-14 23:06
#63 ƒun ॥ Bak || old Corny LJ #58 mrcornhead 15.41 - 2025-02-14 23:06
#117 jimboslice230 Corny LJ #51 mrcornhead 9.81 - 2025-02-14 23:11
#171 speed450 Corny LJ #51 mrcornhead 10.26 - 2025-02-14 23:15
#151 ңя ױ B d a a a v Corny LJ #51 mrcornhead 10.11 - 2025-02-14 23:15
#39 ƒunBҽarzyғаѕт» lottery ticket (more fins!) pedrokazz 9.21 - 2025-02-14 23:19
#12 ƒunBҽarzyғаѕт» Lucky jump no. 278 - Jawohl BumbleBee hermen8 7.56 - 2025-02-14 23:27
#19 jimboslice230 LJ track taav(1) dziwnystan 15.35 - 2025-02-14 23:37
#17 blaank〡פסד LJ track taav(1) dziwnystan 15.23 - 2025-02-14 23:38
#18 speed450 LJ track taav(1) dziwnystan 15.31 - 2025-02-14 23:38
#169 Nova H. +18 Lucky jump no. 185 hermen8 9.12 - 2025-02-14 23:53
#56 blaank〡פסד A simple map hermen8 8.07 - 2025-02-14 23:59
#4 шгн*Ұυκі A simple map hermen8 7.56 - 2025-02-14 23:59
#70 ңя ױ*Enemy ฟřћ* A simple map hermen8 8.31 - 2025-02-15 00:00
#13 шгн domes A simple map hermen8 7.72 - 2025-02-15 00:00
#67 speed450 A simple map hermen8 8.23 - 2025-02-15 00:01
#89 Нтм Ď®丹ǥoNฟřћ* oooooo donald00 14.63 - 2025-02-15 00:03
#41 speed450 oooooo donald00 11.56 - 2025-02-15 00:03
#86 Hang On Sloopy oooooo donald00 13.90 - 2025-02-15 00:08
#32 Nucking Futz oooooo donald00 11.43 - 2025-02-15 00:09
#32 шгн*Ұυκі oooooo donald00 11.43 - 2025-02-15 00:09
#68 huyafei_chn Lucky jump no. 228 hermen8 11.71 - 2025-02-15 00:12
PreviousPage 173Next